• In Deutschland
  • Länderverzeichnis
  • Für 7 Tage
  • Wassertemperatur
  • Satellitenkarten
  • Wetterkarte
  • Widgets
  • user-avatar
    Anmelden

    Stündliche Wetter Copiapo

    Heute, 20 Juni, Mittwoch

    Zeit Temperatur Niederschläge Wind Luftdruck Luftfeuchtigkeit
    00:00 +18°C° 0 mm 1 m/S 727 mmHg 45%
    01:00 +18°C° 0 mm 1 m/S 727 mmHg 45%
    02:00 +16°C° 0 mm 1 m/S 727 mmHg 47%
    03:00 +16°C° 0 mm 1 m/S 727 mmHg 49%
    04:00 +16°C° 0 mm 1 m/S 727 mmHg 51%
    05:00 +16°C° 0 mm 1 m/S 727 mmHg 47%
    06:00 +16°C° 0 mm 1 m/S 727 mmHg 44%
    07:00 +16°C° 0 mm 1 m/S 727 mmHg 41%
    08:00 +20°C° 0 mm 1 m/S 727 mmHg 34%
    09:00 +24°C° 0 mm 1 m/S 727 mmHg 26%
    10:00 +27°C° 0 mm 2 m/S 728 mmHg 19%
    11:00 +28°C° 0 mm 2 m/S 727 mmHg 19%
    12:00 +28°C° 0 mm 2 m/S 727 mmHg 18%
    13:00 +29°C° 0 mm 2 m/S 726 mmHg 17%
    14:00 +28°C° 0 mm 2 m/S 727 mmHg 20%
    15:00 +27°C° 0 mm 2 m/S 727 mmHg 23%
    16:00 +27°C° 0 mm 2 m/S 727 mmHg 25%
    17:00 +25°C° 0 mm 2 m/S 727 mmHg 30%
    18:00 +23°C° 0 mm 1 m/S 727 mmHg 34%
    19:00 +21°C° 0 mm 1 m/S 727 mmHg 39%
    20:00 +21°C° 0 mm 1 m/S 727 mmHg 38%
    21:00 +20°C° 0 mm 1 m/S 727 mmHg 37%
    22:00 +18°C° 0 mm 0 m/S 727 mmHg 36%
    23:00 +19°C° 0 mm 1 m/S 727 mmHg 35%

    Morgen, 21 Juni, Donnerstag

    Zeit Temperatur Niederschläge Wind Luftdruck Luftfeuchtigkeit
    00:00 +19°C° 0 mm 1 m/S 727 mmHg 35%
    01:00 +19°C° 0 mm 1 m/S 727 mmHg 35%
    02:00 +18°C° 0 mm 1 m/S 727 mmHg 34%
    03:00 +18°C° 0 mm 1 m/S 726 mmHg 33%
    04:00 +18°C° 0 mm 1 m/S 726 mmHg 32%
    05:00 +18°C° 0 mm 1 m/S 726 mmHg 30%
    06:00 +18°C° 0 mm 1 m/S 726 mmHg 28%
    07:00 +18°C° 0 mm 1 m/S 726 mmHg 25%
    08:00 +22°C° 0 mm 1 m/S 726 mmHg 21%
    09:00 +26°C° 0 mm 1 m/S 726 mmHg 16%
    10:00 +29°C° 0 mm 1 m/S 726 mmHg 12%
    11:00 +30°C° 0 mm 1 m/S 726 mmHg 12%
    12:00 +30°C° 0 mm 2 m/S 725 mmHg 12%
    13:00 +31°C° 0 mm 2 m/S 725 mmHg 12%
    14:00 +30°C° 0 mm 2 m/S 725 mmHg 15%
    15:00 +29°C° 0 mm 2 m/S 725 mmHg 17%
    16:00 +29°C° 0 mm 2 m/S 724 mmHg 19%
    17:00 +26°C° 0 mm 1 m/S 725 mmHg 24%
    18:00 +24°C° 0 mm 1 m/S 725 mmHg 28%
    19:00 +22°C° 0 mm 1 m/S 725 mmHg 33%
    20:00 +21°C° 0 mm 1 m/S 725 mmHg 33%
    21:00 +21°C° 0 mm 1 m/S 725 mmHg 34%
    22:00 +20°C° 0 mm 1 m/S 725 mmHg 34%
    23:00 +20°C° 0 mm 1 m/S 725 mmHg 34%

    übermorgen, 22 Juni, Freitag

    Zeit Temperatur Niederschläge Wind Luftdruck Luftfeuchtigkeit
    00:00 +17°C° 0 mm 0 m/S 725 mmHg 35%
    01:00 +17°C° 0 mm 0 m/S 724 mmHg 36%
    02:00 +16°C° 0 mm 0 m/S 724 mmHg 38%
    03:00 +16°C° 0 mm 0 m/S 724 mmHg 41%
    04:00 +18°C° 0 mm 1 m/S 724 mmHg 43%
    05:00 +18°C° 0 mm 1 m/S 724 mmHg 40%
    06:00 +18°C° 0 mm 1 m/S 724 mmHg 37%
    07:00 +18°C° 0 mm 1 m/S 724 mmHg 34%
    08:00 +21°C° 0 mm 1 m/S 725 mmHg 29%
    09:00 +24°C° 0 mm 1 m/S 725 mmHg 24%
    10:00 +27°C° 0 mm 1 m/S 726 mmHg 20%
    11:00 +27°C° 0 mm 2 m/S 726 mmHg 20%
    12:00 +28°C° 0 mm 2 m/S 725 mmHg 20%
    13:00 +28°C° 0 mm 2 m/S 725 mmHg 20%
    14:00 +27°C° 0 mm 2 m/S 725 mmHg 24%
    15:00 +26°C° 0 mm 2 m/S 725 mmHg 28%
    16:00 +25°C° 0 mm 2 m/S 725 mmHg 32%
    17:00 +23°C° 0 mm 1 m/S 726 mmHg 39%
    18:00 +22°C° 0 mm 1 m/S 726 mmHg 45%
    19:00 +18°C° 0 mm 0 m/S 726 mmHg 51%
    20:00 +17°C° 0 mm 0 m/S 726 mmHg 51%
    21:00 +17°C° 0 mm 0 m/S 727 mmHg 52%
    22:00 +16°C° 0 mm 0 m/S 727 mmHg 52%
    23:00 +18°C° 0 mm 1 m/S 727 mmHg 53%

    23 Juni, Samstag

    Zeit Temperatur Niederschläge Wind Luftdruck Luftfeuchtigkeit
    00:00 +16°C° 0 mm 1 m/S 727 mmHg 54%
    01:00 +16°C° 0 mm 1 m/S 727 mmHg 56%
    02:00 +16°C° 0 mm 1 m/S 726 mmHg 58%
    03:00 +14°C° 0 mm 0 m/S 726 mmHg 60%
    04:00 +13°C° 0 mm 0 m/S 726 mmHg 62%
    05:00 +14°C° 0 mm 0 m/S 726 mmHg 60%
    06:00 +15°C° 0 mm 1 m/S 727 mmHg 58%
    07:00 +15°C° 0 mm 1 m/S 727 mmHg 56%
    08:00 +18°C° 0 mm 1 m/S 727 mmHg 48%
    09:00 +21°C° 0 mm 1 m/S 727 mmHg 40%
    10:00 +23°C° 0 mm 1 m/S 728 mmHg 32%
    11:00 +24°C° 0 mm 2 m/S 727 mmHg 31%
    12:00 +25°C° 0 mm 2 m/S 727 mmHg 31%
    13:00 +25°C° 0 mm 3 m/S 727 mmHg 30%
    14:00 +25°C° 0 mm 3 m/S 727 mmHg 33%
    15:00 +24°C° 0 mm 2 m/S 727 mmHg 36%
    16:00 +23°C° 0 mm 2 m/S 727 mmHg 39%
    17:00 +21°C° 0 mm 2 m/S 727 mmHg 44%
    18:00 +21°C° 0 mm 1 m/S 727 mmHg 48%
    19:00 +20°C° 0 mm 1 m/S 727 mmHg 53%
    20:00 +19°C° 0 mm 1 m/S 727 mmHg 52%
    21:00 +19°C° 0 mm 1 m/S 727 mmHg 50%
    22:00 +18°C° 0 mm 1 m/S 727 mmHg 49%
    23:00 +18°C° 0 mm 1 m/S 726 mmHg 50%

    24 Juni, Sonntag

    Zeit Temperatur Niederschläge Wind Luftdruck Luftfeuchtigkeit
    00:00 +18°C° 0 mm 1 m/S 726 mmHg 50%
    01:00 +16°C° 0 mm 1 m/S 726 mmHg 50%
    02:00 +16°C° 0 mm 1 m/S 726 mmHg 50%
    03:00 +16°C° 0 mm 1 m/S 725 mmHg 49%
    04:00 +15°C° 0 mm 1 m/S 725 mmHg 49%
    05:00 +16°C° 0 mm 1 m/S 725 mmHg 47%
    06:00 +16°C° 0 mm 1 m/S 726 mmHg 44%
    07:00 +16°C° 0 mm 1 m/S 726 mmHg 42%
    08:00 +20°C° 0 mm 1 m/S 726 mmHg 35%
    09:00 +23°C° 0 mm 1 m/S 726 mmHg 28%
    10:00 +26°C° 0 mm 1 m/S 726 mmHg 21%
    11:00 +26°C° 0 mm 2 m/S 726 mmHg 21%
    12:00 +27°C° 0 mm 2 m/S 725 mmHg 20%
    13:00 +27°C° 0 mm 3 m/S 725 mmHg 20%
    14:00 +27°C° 0 mm 3 m/S 725 mmHg 23%
    15:00 +26°C° 0 mm 2 m/S 725 mmHg 25%
    16:00 +25°C° 0 mm 2 m/S 725 mmHg 27%
    17:00 +24°C° 0 mm 2 m/S 725 mmHg 32%
    18:00 +22°C° 0 mm 1 m/S 725 mmHg 37%
    19:00 +20°C° 0 mm 1 m/S 725 mmHg 41%
    20:00 +20°C° 0 mm 1 m/S 725 mmHg 41%
    21:00 +19°C° 0 mm 1 m/S 725 mmHg 40%
    22:00 +19°C° 0 mm 1 m/S 725 mmHg 39%
    23:00 +18°C° 0 mm 1 m/S 725 mmHg 39%

    25 Juni, Montag

    Zeit Temperatur Niederschläge Wind Luftdruck Luftfeuchtigkeit
    00:00 +18°C° 0 mm 1 m/S 725 mmHg 39%
    01:00 +16°C° 0 mm 1 m/S 725 mmHg 40%
    02:00 +16°C° 0 mm 1 m/S 725 mmHg 40%
    03:00 +16°C° 0 mm 1 m/S 725 mmHg 41%
    04:00 +15°C° 0 mm 1 m/S 725 mmHg 42%
    05:00 +15°C° 0 mm 1 m/S 726 mmHg 39%
    06:00 +15°C° 0 mm 1 m/S 726 mmHg 36%
    07:00 +16°C° 0 mm 1 m/S 727 mmHg 33%
    08:00 +20°C° 0 mm 1 m/S 727 mmHg 28%
    09:00 +22°C° 0 mm 1 m/S 727 mmHg 22%
    10:00 +25°C° 0 mm 1 m/S 728 mmHg 16%
    11:00 +26°C° 0 mm 2 m/S 727 mmHg 16%
    12:00 +26°C° 0 mm 2 m/S 727 mmHg 16%
    13:00 +27°C° 0 mm 3 m/S 727 mmHg 16%
    14:00 +26°C° 0 mm 2 m/S 727 mmHg 18%
    15:00 +26°C° 0 mm 2 m/S 727 mmHg 20%
    16:00 +25°C° 0 mm 2 m/S 727 mmHg 22%
    17:00 +23°C° 0 mm 2 m/S 727 mmHg 26%
    18:00 +22°C° 0 mm 1 m/S 727 mmHg 30%
    19:00 +20°C° 0 mm 1 m/S 728 mmHg 34%
    20:00 +19°C° 0 mm 1 m/S 728 mmHg 32%
    21:00 +19°C° 0 mm 1 m/S 728 mmHg 30%
    22:00 +19°C° 0 mm 1 m/S 728 mmHg 29%
    23:00 +18°C° 0 mm 1 m/S 728 mmHg 27%
    Mehr zeigen